Regional Weather Roundup
Issued by NWS

Home | Current Version | Previous Version | Graphics & Text | Print | Product List | Glossary On
Versions: 1 2 3 4 5 6 7 8 9 10 11 12 13 14 15 16 17 18 19 20 21 22 23 24 25 26 27 28 29 30 31 32 33 34 35 36 37 38 39 40 41 42 43 44 45 46 47 48 49 50
000
ASUS45 KBOI 250210
RWRID

IDAHO REGIONAL WEATHER ROUNDUP
NATIONAL WEATHER SERVICE BOISE ID
800 PM MDT SUN MAY 24 2015

NOTE: "FAIR" INDICATES FEW OR NO CLOUDS BELOW 12000 FEET
WITH NO SIGNIFICANT WEATHER AND/OR OBSTRUCTIONS TO VISIBILITY

IDZ012-014-250300-
SOUTHWEST IDAHO


CITY           SKY/WX    TMP DP  RH WIND       PRES   REMARKS
BOISE          SUNNY     76  40  27 NW12      29.80R
CALDWELL       SUNNY     75  43  31 N10       29.81R
MOUNTAIN HOME  MOSUNNY   69  48  47 E18G29    29.83R
$$

IDZ016-017-250300-
SOUTHCENTRAL IDAHO


CITY           SKY/WX    TMP DP  RH WIND       PRES   REMARKS
BURLEY         CLOUDY    54  50  86 SW3       29.90R
JEROME         RAIN      54  48  80 N8        29.94R
TWIN FALLS     LGT RAIN  56  50  80 NE6       29.90R
$$

IDZ019>023-250300-
SOUTHEAST IDAHO


CITY           SKY/WX    TMP DP  RH WIND       PRES   REMARKS
IDAHO FALLS    CLOUDY    59  48  67 S10       29.87R
POCATELLO      PTCLDY    59  50  72 W6        29.90R
REXBURG        CLOUDY    60  41  49 CALM      29.87R
$$

IDZ006-010-011-018-031-032-250300-
CENTRAL IDAHO MOUNTAINS


CITY           SKY/WX    TMP DP  RH WIND       PRES   REMARKS
MCCALL         MOSUNNY   60  38  43 N9        29.90R
HAILEY         CLOUDY    55  48  76 CALM      29.97R
STANLEY          N/A     52  40  63 W5        29.96R
SALMON         CLOUDY    64  41  42 N5        29.88S
CHALLIS        PTCLDY    58  40  51 NW10      29.90F
$$

IDZ002-004-006-007-026-250300-
NORTHERN IDAHO


CITY           SKY/WX    TMP DP  RH WIND       PRES   REMARKS
LEWISTON       PTSUNNY   77  50  38 E6        29.81F
LOWELL           N/A     64  58  80 CALM      29.82F
COEUR D`ALENE  CLOUDY    72  46  40 W7        29.82S
MULLAN PASS    CLOUDY    48  41  76 S8        30.01S
$$


USA.gov is the U.S. government's official web portal to all federal, state and local government web resources and services.